Time,TemperatureF,DewpointF,PressureIn,WindDirection,WindDirectionDegrees,WindSpeedMPH,WindSpeedGustMPH,Humidity,HourlyPrecipIn,Conditions,Clouds,dailyrainin,SoftwareType,DateUTC
2013-07-07 00:06:00,58.5,52.0,29.73,NNE,25,0.0,-999.0,79,-99.99,,,0.00,weatherlink.com 1.10,2013-07-07 07:06:00,
2013-07-07 00:21:00,57.6,52.0,29.73,NNE,25,0.0,-999.0,82,-99.99,,,0.00,weatherlink.com 1.10,2013-07-07 07:21:00,
2013-07-07 00:36:00,56.9,52.0,29.74,NNE,25,0.0,-999.0,83,-99.99,,,0.00,weatherlink.com 1.10,2013-07-07 07:36:00,
2013-07-07 00:51:00,56.7,52.0,29.74,NNE,25,0.0,-999.0,83,-99.99,,,0.00,weatherlink.com 1.10,2013-07-07 07:51:00,
2013-07-07 01:06:00,56.3,52.0,29.74,NNE,25,0.0,-999.0,84,-99.99,,,0.00,weatherlink.com 1.10,2013-07-07 08:06:00,
2013-07-07 01:21:00,56.1,51.0,29.74,NNE,25,0.0,-999.0,84,-99.99,,,0.00,weatherlink.com 1.10,2013-07-07 08:21:00,
2013-07-07 01:36:00,56.3,52.0,29.74,NNE,25,0.0,-999.0,84,-99.99,,,0.00,weatherlink.com 1.10,2013-07-07 08:36:00,
2013-07-07 01:51:00,56.6,52.0,29.73,NNE,25,0.0,-999.0,84,-99.99,,,0.00,weatherlink.com 1.10,2013-07-07 08:51:00,
2013-07-07 02:06:00,56.4,52.0,29.73,NNE,25,0.0,-999.0,84,-99.99,,,0.00,weatherlink.com 1.10,2013-07-07 09:06:00,
2013-07-07 02:21:00,56.3,52.0,29.72,NNE,25,0.0,-999.0,84,-99.99,,,0.00,weatherlink.com 1.10,2013-07-07 09:21:00,
2013-07-07 02:36:00,56.1,51.0,29.72,NNE,25,1.0,-999.0,84,-99.99,,,0.00,weatherlink.com 1.10,2013-07-07 09:36:00,
2013-07-07 02:51:00,56.8,51.0,29.72,NNE,25,0.0,-999.0,81,-99.99,,,0.00,weatherlink.com 1.10,2013-07-07 09:51:00,
2013-07-07 03:06:00,56.7,51.0,29.72,NNE,25,3.0,-999.0,81,-99.99,,,0.00,weatherlink.com 1.10,2013-07-07 10:06:00,
2013-07-07 03:21:00,56.5,51.0,29.72,NNE,25,0.0,-999.0,82,-99.99,,,0.00,weatherlink.com 1.10,2013-07-07 10:21:00,
2013-07-07 03:36:00,56.1,51.0,29.71,NNE,25,1.0,-999.0,83,-99.99,,,0.00,weatherlink.com 1.10,2013-07-07 10:36:00,
2013-07-07 03:51:00,55.8,51.0,29.72,NNE,25,1.0,-999.0,83,-99.99,,,0.00,weatherlink.com 1.10,2013-07-07 10:51:00,
2013-07-07 04:06:00,56.1,50.0,29.72,NNE,25,0.0,-999.0,81,-99.99,,,0.00,weatherlink.com 1.10,2013-07-07 11:06:00,
2013-07-07 04:21:00,56.2,51.0,29.73,NNE,25,0.0,-999.0,82,-99.99,,,0.00,weatherlink.com 1.10,2013-07-07 11:21:00,
2013-07-07 04:36:00,55.8,50.0,29.74,NNE,25,0.0,-999.0,81,-99.99,,,0.00,weatherlink.com 1.10,2013-07-07 11:36:00,
2013-07-07 04:51:00,56.2,50.0,29.75,NNE,25,0.0,-999.0,79,-99.99,,,0.00,weatherlink.com 1.10,2013-07-07 11:51:00,
2013-07-07 05:06:00,57.0,50.0,29.76,NNE,25,0.0,-999.0,77,-99.99,,,0.00,weatherlink.com 1.10,2013-07-07 12:06:00,
2013-07-07 05:21:00,57.2,50.0,29.76,NNE,25,0.0,-999.0,77,-99.99,,,0.00,weatherlink.com 1.10,2013-07-07 12:21:00,
2013-07-07 05:36:00,57.1,50.0,29.76,North,360,2.0,-999.0,77,-99.99,,,0.00,weatherlink.com 1.10,2013-07-07 12:36:00,
2013-07-07 05:51:00,57.2,50.0,29.76,North,360,0.0,-999.0,76,-99.99,,,0.00,weatherlink.com 1.10,2013-07-07 12:51:00,
2013-07-07 06:06:00,57.4,51.0,29.77,North,360,0.0,-999.0,78,-99.99,,,0.00,weatherlink.com 1.10,2013-07-07 13:06:00,
2013-07-07 06:21:00,57.6,51.0,29.77,North,360,0.0,-999.0,79,-99.99,,,0.00,weatherlink.com 1.10,2013-07-07 13:21:00,
2013-07-07 06:36:00,58.7,52.0,29.78,North,360,0.0,-999.0,78,-99.99,,,0.00,weatherlink.com 1.10,2013-07-07 13:36:00,
2013-07-07 06:51:00,60.9,52.0,29.78,North,360,1.0,-999.0,73,-99.99,,,0.00,weatherlink.com 1.10,2013-07-07 13:51:00,
2013-07-07 07:06:00,63.4,53.0,29.78,North,360,0.0,-999.0,69,-99.99,,,0.00,weatherlink.com 1.10,2013-07-07 14:06:00,
2013-07-07 07:22:00,65.8,53.0,29.79,North,360,0.0,-999.0,64,-99.99,,,0.00,weatherlink.com 1.10,2013-07-07 14:22:00,
2013-07-07 07:37:00,67.9,53.0,29.79,North,360,0.0,-999.0,60,-99.99,,,0.00,weatherlink.com 1.10,2013-07-07 14:37:00,
2013-07-07 07:52:00,69.4,54.0,29.80,North,360,0.0,-999.0,58,-99.99,,,0.00,weatherlink.com 1.10,2013-07-07 14:52:00,
2013-07-07 08:07:00,71.3,54.0,29.80,North,360,0.0,-999.0,54,-99.99,,,0.00,weatherlink.com 1.10,2013-07-07 15:07:00,
2013-07-07 08:22:00,72.5,53.0,29.79,North,360,0.0,-999.0,50,-99.99,,,0.00,weatherlink.com 1.10,2013-07-07 15:22:00,
2013-07-07 08:37:00,73.5,52.0,29.79,North,360,0.0,-999.0,47,-99.99,,,0.00,weatherlink.com 1.10,2013-07-07 15:37:00,
2013-07-07 08:52:00,74.3,53.0,29.79,WNW,288,0.0,-999.0,47,-99.99,,,0.00,weatherlink.com 1.10,2013-07-07 15:52:00,
2013-07-07 09:07:00,76.0,53.0,29.78,WNW,298,1.0,-999.0,45,-99.99,,,0.00,weatherlink.com 1.10,2013-07-07 16:07:00,
2013-07-07 09:22:00,77.9,53.0,29.79,West,266,2.0,-999.0,42,-99.99,,,0.00,weatherlink.com 1.10,2013-07-07 16:22:00,
2013-07-07 09:37:00,78.9,53.0,29.79,SSW,200,2.0,-999.0,40,-99.99,,,0.00,weatherlink.com 1.10,2013-07-07 16:37:00,
2013-07-07 09:52:00,79.8,52.0,29.78,NW,324,0.0,-999.0,38,-99.99,,,0.00,weatherlink.com 1.10,2013-07-07 16:52:00,
2013-07-07 10:07:00,80.3,52.0,29.79,WSW,255,1.0,-999.0,38,-99.99,,,0.00,weatherlink.com 1.10,2013-07-07 17:07:00,
2013-07-07 10:22:00,80.3,53.0,29.79,West,280,2.0,-999.0,39,-99.99,,,0.00,weatherlink.com 1.10,2013-07-07 17:22:00,
2013-07-07 10:37:00,80.9,53.0,29.79,WNW,294,4.0,-999.0,38,-99.99,,,0.00,weatherlink.com 1.10,2013-07-07 17:37:00,
2013-07-07 10:52:00,81.5,51.0,29.79,NW,320,5.0,-999.0,35,-99.99,,,0.00,weatherlink.com 1.10,2013-07-07 17:52:00,
2013-07-07 11:07:00,81.9,51.0,29.79,WSW,238,2.0,-999.0,34,-99.99,,,0.00,weatherlink.com 1.10,2013-07-07 18:07:00,
2013-07-07 11:22:00,82.4,51.0,29.79,West,269,6.0,-999.0,34,-99.99,,,0.00,weatherlink.com 1.10,2013-07-07 18:22:00,
2013-07-07 11:37:00,82.4,51.0,29.78,West,264,2.0,-999.0,34,-99.99,,,0.00,weatherlink.com 1.10,2013-07-07 18:37:00,
2013-07-07 11:52:00,82.5,51.0,29.78,SW,235,2.0,-999.0,33,-99.99,,,0.00,weatherlink.com 1.10,2013-07-07 18:52:00,
2013-07-07 12:07:00,82.6,51.0,29.77,West,274,1.0,-999.0,34,-99.99,,,0.00,weatherlink.com 1.10,2013-07-07 19:07:00,
2013-07-07 12:22:00,83.3,51.0,29.76,SSW,208,4.0,-999.0,33,-99.99,,,0.00,weatherlink.com 1.10,2013-07-07 19:22:00,
2013-07-07 12:37:00,84.0,51.0,29.75,SSW,202,0.0,-999.0,32,-99.99,,,0.00,weatherlink.com 1.10,2013-07-07 19:37:00,
2013-07-07 12:52:00,84.2,50.0,29.76,SSW,197,3.0,-999.0,31,-99.99,,,0.00,weatherlink.com 1.10,2013-07-07 19:52:00,
2013-07-07 13:07:00,85.1,50.0,29.75,West,268,1.0,-999.0,30,-99.99,,,0.00,weatherlink.com 1.10,2013-07-07 20:07:00,
2013-07-07 13:23:00,86.0,46.0,29.75,WSW,252,2.0,-999.0,25,-99.99,,,0.00,weatherlink.com 1.10,2013-07-07 20:23:00,
2013-07-07 13:38:00,86.2,46.0,29.74,West,277,1.0,-999.0,25,-99.99,,,0.00,weatherlink.com 1.10,2013-07-07 20:38:00,
2013-07-07 13:53:00,87.6,50.0,29.74,SW,231,4.0,-999.0,27,-99.99,,,0.00,weatherlink.com 1.10,2013-07-07 20:53:00,
2013-07-07 14:08:00,87.3,49.0,29.74,South,180,1.0,-999.0,27,-99.99,,,0.00,weatherlink.com 1.10,2013-07-07 21:08:00,
2013-07-07 14:23:00,86.6,50.0,29.74,WSW,240,0.0,-999.0,28,-99.99,,,0.00,weatherlink.com 1.10,2013-07-07 21:23:00,
2013-07-07 14:38:00,84.8,46.0,29.74,WSW,250,7.0,-999.0,26,-99.99,,,0.00,weatherlink.com 1.10,2013-07-07 21:38:00,
2013-07-07 14:53:00,83.1,45.0,29.74,South,175,0.0,-999.0,26,-99.99,,,0.00,weatherlink.com 1.10,2013-07-07 21:53:00,
2013-07-07 15:08:00,82.7,45.0,29.74,West,274,0.0,-999.0,27,-99.99,,,0.00,weatherlink.com 1.10,2013-07-07 22:08:00,
2013-07-07 15:23:00,84.8,46.0,29.73,WSW,248,1.0,-999.0,26,-99.99,,,0.00,weatherlink.com 1.10,2013-07-07 22:23:00,
2013-07-07 15:38:00,85.7,44.0,29.73,SW,214,4.0,-999.0,23,-99.99,,,0.00,weatherlink.com 1.10,2013-07-07 22:38:00,
2013-07-07 15:53:00,85.6,45.0,29.72,SSW,202,3.0,-999.0,24,-99.99,,,0.00,weatherlink.com 1.10,2013-07-07 22:53:00,
2013-07-07 16:08:00,85.1,47.0,29.72,SW,236,2.0,-999.0,26,-99.99,,,0.00,weatherlink.com 1.10,2013-07-07 23:08:00,
2013-07-07 16:23:00,84.7,44.0,29.71,West,263,3.0,-999.0,24,-99.99,,,0.00,weatherlink.com 1.10,2013-07-07 23:23:00,
2013-07-07 16:38:00,83.3,44.0,29.70,WSW,243,0.0,-999.0,25,-99.99,,,0.00,weatherlink.com 1.10,2013-07-07 23:38:00,
2013-07-07 16:53:00,83.0,45.0,29.70,SW,215,0.0,-999.0,26,-99.99,,,0.00,weatherlink.com 1.10,2013-07-07 23:53:00,
2013-07-07 17:08:00,83.1,45.0,29.69,WSW,256,0.0,-999.0,26,-99.99,,,0.00,weatherlink.com 1.10,2013-07-08 00:08:00,
2013-07-07 17:23:00,83.0,45.0,29.68,SW,219,0.0,-999.0,26,-99.99,,,0.00,weatherlink.com 1.10,2013-07-08 00:23:00,
2013-07-07 17:38:00,83.1,44.0,29.68,SSW,207,0.0,-999.0,25,-99.99,,,0.00,weatherlink.com 1.10,2013-07-08 00:38:00,
2013-07-07 17:53:00,82.9,45.0,29.68,SSW,207,0.0,-999.0,26,-99.99,,,0.00,weatherlink.com 1.10,2013-07-08 00:53:00,
2013-07-07 18:08:00,82.3,44.0,29.69,SSW,207,0.0,-999.0,26,-99.99,,,0.00,weatherlink.com 1.10,2013-07-08 01:08:00,
2013-07-07 18:23:00,82.1,45.0,29.68,SSW,207,0.0,-999.0,27,-99.99,,,0.00,weatherlink.com 1.10,2013-07-08 01:23:00,
2013-07-07 18:38:00,82.6,45.0,29.68,SSW,207,0.0,-999.0,27,-99.99,,,0.00,weatherlink.com 1.10,2013-07-08 01:38:00,
2013-07-07 18:53:00,82.5,45.0,29.68,SSW,207,0.0,-999.0,27,-99.99,,,0.00,weatherlink.com 1.10,2013-07-08 01:53:00,
2013-07-07 19:08:00,82.1,46.0,29.69,SSW,207,0.0,-999.0,28,-99.99,,,0.00,weatherlink.com 1.10,2013-07-08 02:08:00,
2013-07-07 19:23:00,81.4,45.0,29.68,SSW,207,0.0,-999.0,28,-99.99,,,0.00,weatherlink.com 1.10,2013-07-08 02:23:00,
2013-07-07 19:38:00,80.5,46.0,29.69,SSW,207,0.0,-999.0,30,-99.99,,,0.00,weatherlink.com 1.10,2013-07-08 02:38:00,
2013-07-07 19:53:00,79.1,46.0,29.69,SSW,207,0.0,-999.0,31,-99.99,,,0.00,weatherlink.com 1.10,2013-07-08 02:53:00,
2013-07-07 20:08:00,77.4,46.0,29.70,SSW,207,0.0,-999.0,33,-99.99,,,0.00,weatherlink.com 1.10,2013-07-08 03:08:00,
2013-07-07 20:23:00,75.6,47.0,29.70,SSW,207,0.0,-999.0,36,-99.99,,,0.00,weatherlink.com 1.10,2013-07-08 03:23:00,
2013-07-07 20:38:00,73.6,47.0,29.71,SSW,207,0.0,-999.0,39,-99.99,,,0.00,weatherlink.com 1.10,2013-07-08 03:38:00,
2013-07-07 20:53:00,71.8,47.0,29.72,SSW,207,0.0,-999.0,42,-99.99,,,0.00,weatherlink.com 1.10,2013-07-08 03:53:00,
2013-07-07 21:08:00,70.2,48.0,29.72,SSW,207,0.0,-999.0,45,-99.99,,,0.00,weatherlink.com 1.10,2013-07-08 04:08:00,
2013-07-07 21:23:00,68.9,48.0,29.73,SSW,207,0.0,-999.0,47,-99.99,,,0.00,weatherlink.com 1.10,2013-07-08 04:23:00,
2013-07-07 21:38:00,68.0,47.0,29.73,SSW,207,0.0,-999.0,48,-99.99,,,0.00,weatherlink.com 1.10,2013-07-08 04:38:00,
2013-07-07 21:53:00,67.5,48.0,29.74,SSW,207,0.0,-999.0,49,-99.99,,,0.00,weatherlink.com 1.10,2013-07-08 04:53:00,
2013-07-07 22:08:00,67.0,47.0,29.74,SSW,207,0.0,-999.0,49,-99.99,,,0.00,weatherlink.com 1.10,2013-07-08 05:08:00,
2013-07-07 22:23:00,66.5,47.0,29.74,SSW,207,0.0,-999.0,50,-99.99,,,0.00,weatherlink.com 1.10,2013-07-08 05:23:00,
2013-07-07 22:38:00,66.0,47.0,29.75,SSW,207,0.0,-999.0,51,-99.99,,,0.00,weatherlink.com 1.10,2013-07-08 05:38:00,
2013-07-07 22:53:00,65.7,47.0,29.75,SSW,207,0.0,-999.0,52,-99.99,,,0.00,weatherlink.com 1.10,2013-07-08 05:53:00,
2013-07-07 23:08:00,65.3,47.0,29.75,SSW,207,0.0,-999.0,52,-99.99,,,0.00,weatherlink.com 1.10,2013-07-08 06:08:00,
2013-07-07 23:23:00,65.2,47.0,29.75,SSW,207,0.0,-999.0,52,-99.99,,,0.00,weatherlink.com 1.10,2013-07-08 06:23:00,
2013-07-07 23:38:00,65.6,47.0,29.75,SSW,207,0.0,-999.0,51,-99.99,,,0.00,weatherlink.com 1.10,2013-07-08 06:38:00,
2013-07-07 23:53:00,65.3,47.0,29.75,SSW,207,0.0,-999.0,52,-99.99,,,0.00,weatherlink.com 1.10,2013-07-08 06:53:00,